Location: ??? ???
(33.4974°N, 35.4618°E)
Time: 17:33:38
(UTC+00:00)

Meteor 2-10 Rocket - Pass Details

Date: 29 October 2020
Orbit: 734 x 885 km, 81.2° (Epoch: 01 December)

Event Time Altitude Azimuth Distance (km) Brightness Sun altitude
Rises 16:03:11 0° 192° (SSW) 3,332 7.0 -16.1°
Reaches altitude 10° 16:05:37 10° 194° (SSW) 2,380 6.3 -16.6°
Maximum altitude 16:10:57 72° 278° (W) 822 3.8 -17.7°
Drops below altitude 10° 16:16:07 10° 3° (N) 2,299 5.9 -18.7°
Sets 16:18:27 0° 6° (N) 3,211 6.6 -19.2°
